[[{"header":{"parameterUnit":"m.s-1","parameterCategory":1,"la1":30.2991,"la2":30.254,"lo1":-89.0895,"lo2":-89.0444,"dy":0.0017,"dx":0.0017,"nx":28,"ny":28,"refTime":"2026-02-17T09:00:00:Z","depth":0,"parameterNumber":2,"parameterNumberName":"U-component_of_WINDS"},"data":[0,0,0,0,0,0,0,0,0,0,0,0,0,0,0,0,0,0,0,0,0,0,0,0,0,0,0,0,0,0,0,0,0,0,0,0,0,0,0,0,0,0,0,0,0,0,0,0,0,0,0,0,0,0,0,0,0,0,0.9756,0.9757,0,0.9873,0.9874,0.9876,0.9911,0.991,0.991,0.9909,1.0026,1.003,1.0033,0,0,0,0,0,0,0,0,0,0,0,0,0,0.9559,0.9562,0.9756,0.9757,0.9759,0.9873,0.9875,0.9876,0.9911,0.991,0.9909,0.9909,1.0025,1.0029,1.0034,0,0,0,0,0,0,0,0,0,0,0,0,0,0.9657,0.9564,0.9756,0.979,0.9794,0.9873,0.9875,0.9877,0.9911,0.991,0.9909,0.9908,1.0024,1.0029,1.0034,1.0086,0,0,1.0051,1.0054,0,0,0,0,0,0,0,0,0.9651,0.9664,0.9783,0.9788,0.9793,0.9877,0.9848,0.9947,0.9911,0.9867,0.9909,0.9908,0.9977,0.9986,1.001,1.0092,1.0097,1.0052,1.0055,1.0057,1.0059,0,0,0,0,0,0,0,0.9645,0.9659,0.9802,0.9785,0.9791,0.9798,0.9811,0.9867,0.9925,0.987,0.9873,0.9887,0.9979,1.0005,1.0013,1.0098,1.0051,1.0056,1.006,1.0062,1.0227,1.0228,0,0,0,0,0,0,0.9632,0.9653,0.9798,0.9806,0.9719,0.9803,0.9817,0.985,0.9925,0.9935,0.9887,0.9888,0.9996,1.0007,1.0017,1.0082,1.0057,1.0062,1.0066,1.0226,1.0227,1.0228,0,0,0,0,0,0,0.9628,0.9645,0.9794,0.973,0.975,0.9807,0.9844,0.9853,0.9879,0.9938,0.9948,0.9903,0.9995,1.001,1.0069,1.0086,1.0065,1.007,1.0225,1.0226,1.0228,1.0212,0,0,0,0,0,0,0.9622,0.9643,0.9664,0.9731,0.9753,0.9844,0.9845,0.9856,0.9888,0.989,0.9955,0.9965,0.9996,1.006,1.0074,1.0094,1.0074,1.0223,1.0225,1.0227,1.0211,1.0213,1.0214,0,0,0,0,0,0.9615,0.9655,0.9665,0.9682,0.9781,0.9845,0.9858,0.9894,0.989,0.9911,0.9948,0.9963,1.0082,1.0066,1.0082,1.0103,1.0222,1.0225,1.0227,1.021,1.0212,1.0214,0,0,0,0,0,0,0.9588,0.9664,0.9676,0.9739,0.9785,0.9851,0.9878,0.9895,0.9943,0.9942,0.9984,0.9998,1.0054,1.0085,1.0065,1.0157,1.0153,1.0158,1.0135,1.0137,1.0139,1.0129,1.0079,0,0,0,0,0,0.9589,0.9636,0.97,0.9749,0.9771,0.9821,0.985,0.9874,0.9923,0.9943,0.9985,1.0031,1.0079,1.011,1.0158,1.0216,1.023,1.0239,1.024,1.0241,1.0245,1.0277,1.0282,1.0236,1.0236,1.0236,0,0,0.9592,0.964,0.9667,0.9744,0.9783,0.9829,0.9837,0.9886,0.992,0.995,1.0008,1.0041,1.0095,1.0154,1.0182,1.0181,1.0261,1.0244,1.0245,1.0248,1.028,1.0284,1.0288,1.0238,1.0238,1.0237,0,0,0.9621,0.9663,0.9708,0.9746,0.9805,0.9838,0.9848,0.9912,0.9934,0.9994,1.0017,1.0058,1.014,1.0178,1.0208,1.0251,1.0265,1.0265,1.0273,1.0304,1.0307,1.0311,1.0325,1.033,1.0269,1.0269,1.0269,0,0.9618,0.9689,0.9728,0.9776,0.9809,0.9839,0.9884,0.9919,0.999,1.0011,1.001,1.0114,1.0153,1.022,1.023,1.0254,1.0267,1.0257,1.0304,1.0308,1.0311,1.0325,1.0331,1.0269,1.0269,1.0269,1.0269,0,0.9681,0.973,0.9759,0.9828,0.9864,0.991,0.9955,0.9987,1.0007,1.004,1.0099,1.0147,1.0204,1.0222,1.0242,1.0292,1.029,1.0296,1.0292,1.0314,1.0328,1.0334,1.0268,1.0268,1.0268,1.0268,0,0,0.9696,0.9785,0.9795,0.9826,0.9893,0.9932,0.9979,1.0036,1.0062,1.0109,1.0149,1.0218,1.0224,1.0257,1.0282,1.0309,1.0339,1.0312,1.0314,1.0314,1.0395,1.039,1.0396,1.0349,1.035,1.0351,1.0391,0,0.9733,0.9819,0.9855,0.9924,0.9969,0.9998,1.0039,1.0083,1.0115,1.0157,1.0191,1.0239,1.0244,1.0264,1.0292,1.0329,1.0356,1.0327,1.0385,1.0387,1.037,1.0403,1.0398,1.0432,1.0396,1.0397,1.0398,0,0.9787,0.9836,0.9909,0.9971,0.9991,1.0027,1.0082,1.0122,1.0173,1.0194,1.0232,1.0255,1.0304,1.0298,1.0365,1.0345,1.0371,1.0393,1.0395,1.0401,1.0393,1.0409,1.0444,1.0449,1.0407,1.0406,1.0406,0,0.9789,0.9873,0.9928,0.9954,1.0027,1.0051,1.0082,1.0133,1.0164,1.0212,1.0233,1.0285,1.0313,1.0353,1.0389,1.0382,1.0453,1.045,1.047,1.0469,1.0483,1.0482,1.0522,1.0502,1.0501,1.0501,1.0501,0,0.9826,0.9869,0.993,0.9963,1.0013,1.0053,1.0101,1.0134,1.0178,1.0218,1.0246,1.0282,1.0328,1.037,1.0399,1.045,1.0463,1.048,1.0487,1.0477,1.0475,1.0494,1.0492,1.0503,1.0502,1.0502,1.0502,0,0.9836,0.9879,0.994,1.0004,1.0021,1.0054,1.0109,1.0142,1.0174,1.0224,1.0238,1.0289,1.034,1.038,1.0446,1.0466,1.0519,1.0527,1.0502,1.0505,1.0523,1.052,1.0576,1.0585,1.0559,1.0559,1.0559,0,0.9856,0.9891,0.9958,0.9987,1.0019,1.0065,1.0098,1.0139,1.0171,1.0232,1.0257,1.031,1.0354,1.0434,1.0476,1.0527,1.0536,1.0552,1.0543,1.0532,1.0535,1.0532,1.0535,1.0552,1.0553,1.0553,1.0553,0,0.9887,0.9907,0.9953,1.0007,1.0045,1.0089,1.0134,1.0156,1.0205,1.024,1.0292,1.0327,1.0395,1.0446,1.0501,1.0532,1.055,1.0555,1.0562,1.0552,1.0536,1.0544,1.0503,1.0554,1.0553,1.0553,1.0553,1.0553,0.9903,0.9934,0.9987,1.0037,1.0075,1.0116,1.015,1.0187,1.0232,1.0291,1.0313,1.0366,1.0416,1.0491,1.0523,1.0565,1.0566,1.0577,1.0579,1.0581,1.0579,1.053,1.0575,1.0575,1.0575,1.0575,1.0575,0,0.9934,0.9969,1.0016,1.0077,1.0117,1.0132,1.0182,1.0213,1.0261,1.0306,1.0349,1.0409,1.0459,1.0505,1.0558,1.0582,1.0592,1.0594,1.0592,1.0599,1.0576,1.0564,1.0586,1.0586,1.0586,1.0586,1.0586,1.0586,0.9955,1.0009,1.0034,1.0107,1.0142,1.0195,1.0222,1.026,1.0296,1.0362,1.0404,1.0434,1.0479,1.0535,1.0581,1.0594,1.0611,1.0611,1.0626,1.0602,1.0601,1.0599,1.0588,1.0615,1.0615,1.0646,1.0646,1.0646]},{"header":{"parameterUnit":"m.s-1","parameterCategory":1,"la1":30.2991,"la2":30.254,"lo1":-89.0895,"lo2":-89.0444,"dy":0.0017,"dx":0.0017,"nx":28,"ny":28,"refTime":"2026-02-17T09:00:00:Z","depth":0,"parameterNumber":3,"parameterNumberName":"V-component_of_WINDS"},"data":[0,0,0,0,0,0,0,0,0,0,0,0,0,0,0,0,0,0,0,0,0,0,0,0,0,0,0,0,0,0,0,0,0,0,0,0,0,0,0,0,0,0,0,0,0,0,0,0,0,0,0,0,0,0,0,0,0,0,0.5235,0.5235,0,0.5204,0.5204,0.5203,0.5176,0.5176,0.5175,0.5175,0.5143,0.5142,0.5142,0,0,0,0,0,0,0,0,0,0,0,0,0,0.5268,0.5267,0.5235,0.5235,0.5234,0.5204,0.5204,0.5203,0.5176,0.5176,0.5175,0.5175,0.5143,0.5142,0.5142,0,0,0,0,0,0,0,0,0,0,0,0,0,0.5247,0.5267,0.5235,0.5217,0.5215,0.5204,0.5204,0.5203,0.5176,0.5176,0.5175,0.5175,0.5143,0.5142,0.5142,0.5146,0,0,0.5139,0.5139,0,0,0,0,0,0,0,0,0.5248,0.5246,0.522,0.5218,0.5216,0.5193,0.5204,0.5184,0.5176,0.5191,0.5175,0.5175,0.516,0.5158,0.5153,0.5145,0.5143,0.5139,0.5138,0.5138,0.5138,0,0,0,0,0,0,0,0.525,0.5247,0.5223,0.522,0.5217,0.521,0.5206,0.52,0.5178,0.519,0.5188,0.5184,0.5159,0.5154,0.5152,0.5143,0.5139,0.5138,0.5138,0.5137,0.5134,0.5134,0,0,0,0,0,0,0.5254,0.5248,0.5224,0.5222,0.5231,0.5209,0.5206,0.5201,0.5179,0.5175,0.5185,0.5183,0.5156,0.5153,0.5151,0.5153,0.5138,0.5137,0.5137,0.5134,0.5134,0.5134,0,0,0,0,0,0,0.5255,0.5252,0.5225,0.5234,0.523,0.5209,0.5205,0.5201,0.5196,0.5175,0.5171,0.5184,0.5155,0.5152,0.5147,0.5152,0.5137,0.5136,0.5133,0.5134,0.5134,0.5159,0,0,0,0,0,0,0.5256,0.5253,0.5255,0.5235,0.523,0.5222,0.5205,0.5201,0.5195,0.5192,0.5173,0.5169,0.5154,0.5148,0.5146,0.515,0.5136,0.5133,0.5133,0.5134,0.5158,0.516,0.5163,0,0,0,0,0,0.5257,0.5263,0.5255,0.5252,0.5232,0.5223,0.522,0.5203,0.5195,0.5197,0.5183,0.517,0.5152,0.5148,0.5145,0.5149,0.5132,0.5133,0.5134,0.5156,0.516,0.5162,0,0,0,0,0,0,0.5284,0.526,0.5251,0.5251,0.5239,0.5218,0.522,0.5208,0.5198,0.5196,0.5175,0.5171,0.5168,0.5158,0.5155,0.5151,0.514,0.514,0.5158,0.5161,0.5163,0.5166,0.5135,0,0,0,0,0,0.529,0.5285,0.5264,0.5266,0.526,0.5241,0.5236,0.5224,0.5211,0.5206,0.5192,0.5179,0.517,0.5165,0.5156,0.5156,0.515,0.5157,0.516,0.5162,0.5162,0.516,0.5162,0.5138,0.5138,0.5137,0,0,0.5302,0.5289,0.5287,0.5271,0.526,0.5254,0.5237,0.5232,0.5227,0.5205,0.5199,0.5188,0.5173,0.517,0.5168,0.5161,0.5168,0.5163,0.5165,0.5164,0.5161,0.5163,0.5165,0.5138,0.5138,0.5138,0,0,0.5321,0.5311,0.531,0.53,0.5284,0.5271,0.5271,0.5252,0.5244,0.5237,0.522,0.5214,0.52,0.5189,0.5181,0.5194,0.5181,0.5192,0.5205,0.5203,0.5204,0.5206,0.5209,0.5211,0.5192,0.5193,0.5193,0,0.5338,0.533,0.5312,0.5307,0.53,0.528,0.5278,0.5269,0.5251,0.5246,0.5239,0.522,0.5208,0.5201,0.5204,0.52,0.5198,0.5194,0.5206,0.5207,0.5208,0.5211,0.5213,0.5194,0.5194,0.5194,0.5193,0,0.5351,0.5345,0.5346,0.5329,0.5322,0.5319,0.53,0.5295,0.5283,0.527,0.5263,0.5248,0.5235,0.5232,0.5221,0.5223,0.522,0.521,0.5198,0.5212,0.5215,0.5216,0.5196,0.5195,0.5195,0.5195,0,0,0.5386,0.5359,0.5359,0.5351,0.5331,0.5326,0.5321,0.5308,0.5304,0.5292,0.5286,0.5274,0.5264,0.5256,0.5243,0.5241,0.525,0.523,0.523,0.5234,0.525,0.5257,0.5259,0.5242,0.5242,0.5242,0.5251,0,0.5402,0.5393,0.5376,0.5373,0.5366,0.5346,0.5341,0.5328,0.5316,0.5308,0.5294,0.5285,0.5273,0.5268,0.5265,0.525,0.5253,0.5249,0.5235,0.5235,0.524,0.5261,0.5269,0.5278,0.5252,0.5252,0.5252,0,0.5418,0.5407,0.5403,0.5382,0.5379,0.5376,0.5362,0.5355,0.5339,0.5329,0.5319,0.5305,0.5298,0.5287,0.5276,0.5273,0.5267,0.5258,0.5258,0.5256,0.5244,0.5258,0.5281,0.5282,0.5254,0.5254,0.5254,0,0.5444,0.5428,0.5423,0.5416,0.5392,0.539,0.538,0.5364,0.5356,0.5344,0.5338,0.5325,0.5318,0.5307,0.5288,0.5283,0.5279,0.5267,0.527,0.5271,0.527,0.527,0.5292,0.5267,0.5267,0.5267,0.5267,0,0.5462,0.546,0.5433,0.543,0.5427,0.5407,0.5404,0.5391,0.5377,0.537,0.5352,0.5346,0.5322,0.5313,0.5298,0.529,0.5287,0.5279,0.5275,0.528,0.5281,0.5275,0.5274,0.5267,0.5267,0.5267,0.5267,0,0.549,0.5472,0.5465,0.5443,0.5437,0.5435,0.5416,0.5411,0.5397,0.5389,0.5386,0.5363,0.5351,0.5332,0.5314,0.5304,0.5299,0.5293,0.5304,0.5302,0.5306,0.5305,0.5323,0.5324,0.53,0.53,0.53,0,0.5502,0.55,0.5477,0.5472,0.5462,0.5454,0.5446,0.5425,0.5418,0.5399,0.5396,0.5383,0.5371,0.5352,0.5334,0.532,0.5313,0.532,0.531,0.5315,0.5311,0.5311,0.531,0.5322,0.5322,0.5323,0.5323,0,0.5526,0.5517,0.5507,0.5494,0.5485,0.5473,0.546,0.5457,0.5433,0.5425,0.5413,0.5404,0.5385,0.5371,0.5354,0.5343,0.5328,0.5326,0.5326,0.5331,0.5337,0.5333,0.5309,0.5326,0.5325,0.5325,0.5325,0.5325,0.5546,0.5542,0.5526,0.5515,0.5503,0.5491,0.5485,0.547,0.546,0.5443,0.5432,0.542,0.5402,0.5378,0.5366,0.5356,0.535,0.535,0.5349,0.535,0.5351,0.5339,0.5353,0.5352,0.5352,0.5352,0.5352,0,0.5568,0.5556,0.5546,0.5529,0.5519,0.5507,0.5492,0.5485,0.5475,0.546,0.5448,0.5433,0.5419,0.5399,0.5383,0.5379,0.5371,0.5375,0.5375,0.5372,0.5358,0.5359,0.5381,0.5381,0.5381,0.5381,0.5381,0.5381,0.5578,0.5571,0.556,0.5547,0.5534,0.5523,0.5515,0.5503,0.5491,0.5475,0.5464,0.5451,0.5433,0.5416,0.5402,0.5396,0.5391,0.5396,0.5389,0.5376,0.5373,0.5371,0.5372,0.5396,0.5396,0.5403,0.5404,0.5404]}]]